Flag for Germany

Past Weather in Schloss Holte-Stukenbrock, North Rhine-Westphalia, Germany — Yesterday and Last 2 Weeks

Now
77 °F

Passing clouds.


Feels Like: 79 °F
Forecast: 88 / 69 °F
Wind: 13 mph from East

Location: Paderborn / Lippstadt

Current Time: Aug 10, 2020 at 11:13:35 am

Latest Report: Aug 10, 2020 at 10:20 am


Visibility: N/A

Pressure: 30.04 "Hg

Humidity: 57%

Dew Point: 61 °F

Location of Schloss Holte-StukenbrockLocation

Past Weather in Schloss Holte-Stukenbrock — Graph

°F

Schloss Holte-Stukenbrock Temperature Yesterday

Maximum temperature yesterday: 95 °F (at 1:20 pm)
Minimum temperature yesterday: 63 °F (at 6:20 am)
Average temperature yesterday: 77 °F

High & Low Weather Summary for the Past Weeks

 TemperatureHumidityPressure
High95 °F (Aug 9, 1:20 pm)100% (Aug 2, 5:20 am)30.18 "Hg (Aug 2, 5:20 am)
Low48 °F (Jul 30, 5:20 am)20% (Aug 6, 5:20 pm)29.77 "Hg (Jul 27, 10:20 pm)
Average71 °F53%30.03 "Hg
* Reported Jul 26 9:20 am — Aug 10 9:20 am, Schloss Holte-Stukenbrock. Weather by CustomWeather, © 2020

Note: Actual official high and low records may vary slightly from our data, if they occured in-between our weather recording intervals... More about our weather records

Schloss Holte-Stukenbrock Weather History for the Previous 24 Hours

Scroll right to see more
 ConditionsComfort  
Time TempWeatherWind HumidityBarometerVisibility
9:20 am
Mon, Aug 10
75 °FPassing clouds.7 mph61%30.01 "HgN/A
8:50 am72 °FPassing clouds.6 mph69%30.01 "HgN/A
8:20 am70 °FSunny.10 mph78%30.01 "Hg10 mi
7:50 am70 °FMild.8 mph78%30.01 "HgN/A
7:20 am70 °FPassing clouds.8 mph78%30.04 "HgN/A
6:50 am70 °FThundershowers. Scattered clouds.9 mph73%30.04 "HgN/A
6:20 am70 °FThundershowers. Passing clouds.7 mph73%30.04 "HgN/A
5:50 am72 °FThundershowers. Passing clouds.9 mph69%30.04 "HgN/A
5:20 am68 °FClear.12 mph83%30.04 "Hg10 mi
4:50 am66 °FClear.6 mph88%30.04 "Hg10 mi
4:20 am68 °FClear.6 mph83%30.04 "Hg10 mi
12:50 am68 °FClear.7 mph88%30.04 "Hg10 mi
12:20 am68 °FPassing clouds.5 mph88%30.04 "HgN/A
11:50 pm
Sun, Aug 9
68 °FPassing clouds.5 mph88%30.04 "HgN/A
11:20 pm68 °FClear.2 mph88%30.04 "Hg10 mi
10:50 pm70 °FClear.6 mph83%30.04 "Hg10 mi
10:20 pm70 °FClear.9 mph83%30.04 "Hg10 mi
9:20 pm70 °FPassing clouds.3 mph88%30.07 "HgN/A
8:50 pm70 °FLight rain. Passing clouds.6 mph88%30.07 "HgN/A
8:20 pm72 °FPassing clouds.5 mph83%30.07 "HgN/A
7:50 pm70 °FPassing clouds.3 mph83%30.07 "HgN/A
7:20 pm72 °FThundershowers. Passing clouds.5 mph78%30.07 "HgN/A
6:50 pm73 °FThundershowers. Passing clouds.6 mph69%30.07 "HgN/A
6:20 pm77 °FThundershowers. Passing clouds.3 mph61%30.04 "HgN/A
5:50 pm79 °FThundershowers. Clear.5 mph61%30.04 "HgN/A
5:20 pm79 °FScattered showers. Clear.9 mph61%30.04 "HgN/A
4:50 pm79 °FPartly sunny.12 mph61%30.04 "HgN/A
4:20 pm75 °FSprinkles. Broken clouds.12 mph74%30.04 "HgN/A
3:20 pm91 °FThunderstorms. Clear.7 mph28%30.04 "HgN/A
2:50 pm93 °FPassing clouds.8 mph26%30.04 "HgN/A
2:20 pm91 °FSunny.5 mph28%30.04 "Hg10 mi
1:50 pm91 °FPassing clouds.7 mph28%30.04 "HgN/A
1:20 pm95 °FPassing clouds.9 mph25%30.04 "HgN/A
12:50 pm91 °FSunny.6 mph28%30.04 "Hg10 mi
12:20 pm91 °FSunny.5 mph28%30.07 "Hg10 mi
11:50 am91 °FPassing clouds.6 mph30%30.07 "HgN/A
11:20 am90 °FSunny.2 mph29%30.07 "Hg10 mi
Weather by CustomWeather, © 2020

See weather overview